Starlink 32324

operational
NORAD ID: 61863 Int'l Des: 2024-202 Owner: SPXS Country: US Constellation: starlink
LEOCIRCULAR

About Starlink 32324

Description loading...

Live Position

Loading 3D Globe...

Upcoming Passes

Altitude History

Altitude vs Time

uPlot chart will show altitude changes over time

Two-Line Element Set

1 61863U 24202U 26036.11752170 -.00000414 00000-0 -55196-5 0 9997
2 61863 43.0008 62.1512 0000549 250.3480 109.7313 15.27581320 70340
Epoch: Feb 5, 2026 • Age: 7 hours

Current Status

Altitude 483.6 km
Velocity 7.63 km/s
Sub-Earth Point -5.73°S, 37.72°W
Launch Date Nov 7, 2024
Age 1.2 years
Type internet

Technical Details

Classification Payload
Mass 730.00 kg
Dry Mass 700.00 kg
Total Mass 730.00 kg
Length 0.30 m
Diameter 4.10 m
Span 29.00 m
Shape Box + pan
Manufacturer SPXS
Bus Type Starlink V2M
Phase Status In Orbit
Owner/State SPXS/US

Large Constellations

Loading constellations...